Погода в Абасири

Япония     43°58′40″N   144°09′18″E
темп.,
°C
ветер,
м/с
пор.,
м/с
влажн.,
%
обл.,
%
осадки,
мм/ч
давл.,
гПа
погр.,
м
11 мая, вт
вт1100:00+2сз111697100 0.8 1007768
03:00+2сз111597100 1.1 1009660
06:00+2сз91397100 0.6 1011588
09:00+2сз81297100 0.9 1014582
12:00+2сз91297100 0.4 1015587
15:00+2сз81297100 0.6 1016618
18:00+1сз61098100 0.4 1018456
21:00+1сз5898100 0.9 1020375
12 мая, ср
ср1200:00+2сз4698100 0.1 1021311
03:00+2сз3597100 0.2 1022290
06:00+2сз2394100 0.0 1024303
09:00+4ссв118789 0.0 1024442
12:00+5всв328766 0.0 1023299
15:00+5в44836 0.0 1022246
18:00+5вюв228897 0.0 102245
21:00+5ю4789100 0.0 1022115
13 мая, чт
чт1300:00+5ю51085100 0.0 1021258
03:00+5ююз4888100 0.0 1020218
06:00+6ю588742 0.0 1020256
09:00+11ю687370 0.0 1018716
12:00+12ю457474 0.1 1016750
15:00+10ссв347795 0.3 1016219
18:00+9ююв1181100 0.0 101610
21:00+9ю2285100 0.0 101717
14 мая, пт
пт1400:00+8ююз44910 0.0 101637
03:00+7ююз34925 0.0 101647
06:00+10ююз4683100 0.0 1016121
09:00+15ю356392 0.0 1015470
12:00+18юв44525 0.0 10141096
15:00+17юв56554 0.0 1013541
18:00+14юв467336 0.0 101492
21:00+11ю33795 0.0 101526
15 мая, сб
сб1500:00+9ю457967 0.0 101550
03:00+8ю478345 0.0 101578
06:00+10ю5888100 0.0 1015166
09:00+14ю7974100 0.0 1013496
12:00+14ю7978100 0.0 1011519
15:00+12ю61093100 1.5 1009286
18:00+12ю61194100 0.6 1007372
21:00+12ю71494100 0.6 1006340